Location: Peebles
(55.6412°N, 3.1714°W)
Time: 21:58:22
(UTC+01:00)

deb Kosmos-2123 - Pass Details

Date: 06 July 2022
Orbit: 942 x 985 km, 82.9° (Epoch: 17 August)

Event Time Altitude Azimuth Distance (km) Brightness Sun altitude
Exits shadow 01:49:07 15° 192° (SSW) 2,410 ? -11.4°
Maximum altitude 01:54:32 85° 281° (W) 993 ? -11.3°
Drops below altitude 10° 02:00:51 10° 11° (N) 2,736 ? -11.1°
Sets 02:03:21 0° 12° (NNE) 3,681 ? -11.0°
